FENGYUN 1C DEB, 41830

Orbit data source: Space-Track

FENGYUN 1C DEB, 41830 is space debris in SSO originally from a launch on Mon, 10 May 1999 UTC launched from the Taiyaun Space Center, China (TSC). Fengyun 1C debris stems from the Chinese weather satellite Fengyun-1C, which was intentionally destroyed by a Chinese anti-satellite missile in 2007. This event dramatically increased the amount of space debris, with thousands of trackable fragments posing hazards to satellites and human spaceflight. The Fengyun 1C debris cloud has become a focal point in discussions about space sustainability and the need for international regulations to prevent the creation of new debris.

Loading next visibility...
Identifier
41830, 1999-025EYH
Orbit
SSO
Country
Flag of CNCN / PRC
Related business
Manufacturer
Unknown
Mission
Spacecraft
Bus & Motor
Unknown
Mass
Unknown
Launch date (UTC)
1999-05-10 (26 years ago)
Launch vehicle
Unknown
Launch site
Taiyaun Space Center, China (TSC)
Object type
Payload
Rocket body
Debris
Shape & HBR
Unknown shape, 0.1 m
Radar Cross Section
Small (<0.1 m²)

Expand to show TLE details & history
Last TLE update: 2 days ago

TLE from 2 days ago
0 FENGYUN 1C DEB
1 41830U 99025EYH 25309.15764283  .00003681  00000-0  15391-2 0  9995
2 41830  98.7562  21.1625 0052205 326.6973  33.0926 14.25986569467388
Epoch: 2025-11-05T03:47Z
TLE epoch observation values (Epoch: 2025-11-05T03:47:00.340Z)
Latitude
0.00002°
Longitude
-80.22326°
Altitude
776.734 km
Speed
7.482 km/s
True Right ascension
01h 24m 38s
True Declination
0° 00' 00"
Sunlit
Object was in full shadow at epoch
Visualization orbit readout
Latitude
Unknown
Longitude
Unknown
Altitude
Unknown
Speed
Unknown
Apparent Right ascension
Unknown
Apparent Declination
Unknown
Sunlit
N/A
Visualization observer readout
Local Sidereal Time
07:56:45
Azimuth
Unknown
Elevation
Unknown
Doppler factor
Unknown
Orbital elements
Apogee altitude
839.816 km
Perigee altitude
764.845 km
Semi-major axis
7,180.467 km
Eccentricity
0.00522
Inclination
98.7562°
RAAN
21.1625°
Arg. of periapsis
326.6973°
True anomaly
33.42102°
Mean anomaly
33.0926°
Eccentric anomaly
33.25663°
Mean motion
3.56709 °/min
Orbital period
100.92 mins
BSTAR
0.0015391
Loading maneuver chart data...
Computing Atmospheric mass density...

Documentation

Showing up to 5 results
|